Tracking 28794 objects as of 19-Apr-2024
HD Live streaming from Space Station
objects crossing your sky now

SL-19 DEB

Track SL-19 DEB now!
10-day predictions


NORAD ID: 23493
Int'l Code: 1994-085R
Perigee: 1,879.8 km
Apogee: 2,137.1 km
Inclination: 64.9 °
Period: 127.2 minutes
Semi major axis: 8379 km
RCS: 0.0464 m2 (small)
Launch date: December 26, 1994
Source: Commonwealth of Independent States (former USSR) (CIS)
Launch site: TYURATAM MISSILE AND SPACE COMPLEX (TTMTR)

Note: This is SATELLITE DEBRIS
Your satellite tracking list
Your tracking list is empty




NASA's NSSDC Master Catalog

Two Line Element Set (TLE):
1 23493U 94085R   24103.00477275 -.00000019  00000-0  64841-3 0  9996
2 23493  64.9425  89.1221 0153555 330.7356  63.2733 11.31826747210341
Source of the keplerian elements: AFSPC